Weather History for Topeka Forbes, KS

Change the Weather History Date:

Tuesday, February 5, 2013

  Actual Average Record
Temperature  
Mean Temperature 40 °F -  
Max Temperature 60 °F 37 °F 68 °F (1963)
Min Temperature 21 °F 16 °F -17 °F (1979)
Degree Days  
Heating Degree Days 24    
Moisture  
Dew Point 25 °F    
Average Humidity 64    
Maximum Humidity 92    
Minimum Humidity 31    
Precipitation  
Precipitation 0.00 in - - ()
Sea Level Pressure  
Sea Level Pressure 30.01 in    
Wind  
Wind Speed 6 mph (SW)    
Max Wind Speed 14 mph    
Max Gust Speed 22 mph    
Visibility 9 miles    
Events      
Averages and records for this station are not official NWS values.
T = Trace of Precipitation, MM = Missing Value Source: NWS Daily Summary

Daily Weather History Graph

Daily Weather History Graph

Search for Another Location

Airport:

Trip Planner

Search our weather history database for the weather conditions in past years. The results will help you decide how hot, cold, wet, or windy it might be!

Date:

Astronomy

Feb. 05, 2013 Rise Set
Actual Time 7:24 AM CST 5:48 PM CST
Civil Twilight 6:57 AM CST 6:16 PM CST
Nautical Twilight 6:25 AM CST 6:48 PM CST
Astronomical Twilight 5:54 AM CST 7:19 PM CST
Moon 3:06 AM CST (2/5) 1:08 PM CST (2/5)
Length of Visible Light 11h 19m
Length of Day
10h 24m
Waning Crescent, 26% of the Moon is Illuminated
Feb 5
Waning Crescent
Feb 10
New
Feb 17
First Quarter
Feb 25
Full
Mar 4
Last Quarter

Hourly Weather History & Observations

Time (CST) Temp. Windchill Dew Point Humidity Pressure Visibility Wind Dir Wind Speed Gust Speed Precip Events Conditions
12:53 AM 21.9 °F 17.2 °F 19.0 °F 89% 29.95 in 7.0 mi South 3.5 mph - N/A   Clear
1:53 AM 21.9 °F 17.2 °F 19.9 °F 92% 29.94 in 7.0 mi SSE 3.5 mph - N/A   Clear
2:53 AM 21.9 °F 13.4 °F 19.0 °F 89% 29.94 in 7.0 mi South 6.9 mph - N/A   Clear
3:53 AM 23.0 °F 18.4 °F 19.9 °F 88% 29.92 in 7.0 mi SSE 3.5 mph - N/A   Clear
4:53 AM 24.1 °F 15.2 °F 21.0 °F 88% 29.92 in 7.0 mi South 8.1 mph - N/A   Clear
5:53 AM 25.0 °F 18.1 °F 21.9 °F 88% 29.95 in 8.0 mi WSW 5.8 mph - N/A   Clear
6:53 AM 25.0 °F 17.1 °F 21.9 °F 88% 29.96 in 8.0 mi SW 6.9 mph - N/A   Clear
7:53 AM 25.0 °F 17.1 °F 21.9 °F 88% 29.97 in 6.0 mi South 6.9 mph - N/A   Clear
8:53 AM 32.0 °F 27.5 °F 27.0 °F 82% 30.00 in 7.0 mi SW 4.6 mph - N/A   Clear
9:53 AM 39.9 °F 35.1 °F 30.9 °F 70% 30.00 in 10.0 mi West 6.9 mph - N/A   Clear
10:53 AM 48.9 °F - 30.0 °F 48% 30.01 in 10.0 mi West 8.1 mph - N/A   Clear
11:53 AM 54.0 °F - 30.0 °F 40% 30.02 in 10.0 mi NW 10.4 mph - N/A   Clear
12:53 PM 57.0 °F - 30.0 °F 36% 30.01 in 10.0 mi NNW 13.8 mph - N/A   Clear
1:53 PM 59.0 °F - 30.0 °F 33% 30.00 in 10.0 mi NNW 12.7 mph 21.9 mph N/A   Clear
2:53 PM 60.1 °F - 28.9 °F 31% 30.00 in 10.0 mi NW 13.8 mph 19.6 mph N/A   Clear
3:53 PM 59.0 °F - 28.0 °F 31% 30.01 in 10.0 mi NNW 13.8 mph - N/A   Clear
4:53 PM 55.9 °F - 28.0 °F 34% 30.02 in 10.0 mi NW 10.4 mph - N/A   Clear
5:53 PM 52.0 °F - 27.0 °F 38% 30.03 in 10.0 mi NNE 6.9 mph - N/A   Clear
6:53 PM 48.9 °F - 27.0 °F 43% 30.05 in 10.0 mi Calm Calm - N/A   Clear
7:53 PM 37.0 °F 33.3 °F 26.1 °F 65% 30.08 in 10.0 mi NE 4.6 mph - N/A   Clear
8:53 PM 35.1 °F 32.2 °F 25.0 °F 67% 30.09 in 10.0 mi ENE 3.5 mph - N/A   Clear
9:53 PM 35.1 °F 32.2 °F 25.0 °F 67% 30.09 in 10.0 mi East 3.5 mph - N/A   Clear
10:53 PM 33.1 °F 28.7 °F 24.1 °F 70% 30.10 in 10.0 mi ESE 4.6 mph - N/A   Clear
11:53 PM 30.0 °F 26.5 °F 23.0 °F 75% 30.11 in 10.0 mi SE 3.5 mph - N/A   Clear